Home > Weather > Khabarovsk > Past weeks

Flag for Russia Past Weather in Khabarovsk, Russia — Yesterday and Last 2 Weeks

Now
73 °F

Scattered clouds.


Feels Like: 75 °F
Forecast: 67 / 69 °F
Wind: No wind

Location: Habarovsk

Current Time: Jul 25, 2016 at 6:14:32 PM

Latest Report: Jul 25, 2016 at 5:30 PM


Visibility: N/A

Pressure: 29.80 "Hg

Humidity: 74%

Dew Point: 64 °F

Location of KhabarovskLocation

Past Weather in Khabarovsk — Graph

°F

Khabarovsk Temperature Yesterday

Maximum temperature yesterday: 72 °F (at 7:00 PM)
Minimum temperature yesterday: 66 °F (at 1:00 AM)
Average temperature yesterday: 68 °F

High & Low Weather Summary for the Past Weeks

 TemperatureHumidityPressure
High88 °F (Jul 21, 1:00 PM)100% (Jul 13, 4:30 AM)29.92 "Hg (Jul 13, 4:30 AM)
Low57 °F (Jul 15, 1:30 AM)39% (Jul 10, 6:30 PM)29.47 "Hg (Jul 12, 3:00 AM)
Average72 °F78%29.75 "Hg
* Reported Jul 10 5:00 PM — Jul 25 5:00 PM, Khabarovsk, Weather by CustomWeather, © 2016

Note: Actual official high and low records may vary slightly from our data, if they occured in-between our weather recording intervals... More about our weather records

Advertising

Khabarovsk Weather History for the Previous 24 Hours

Scroll right to see more
 ConditionsComfort  
Time TempWeatherWind HumidityBarometerVisibility
5:00 PM
Mon, Jul 25
73 °FMild.N/A78%29.80 "HgN/A
4:30 PM73 °FPartly sunny.1 mph78%29.83 "HgN/A
4:00 PM75 °FPartly sunny.1 mph74%29.80 "HgN/A
3:30 PM75 °FPartly sunny.3 mph69%29.80 "HgN/A
3:00 PM73 °FPartly sunny.3 mph74%29.80 "HgN/A
2:30 PM75 °FPartly sunny.3 mph69%29.80 "HgN/A
2:00 PM75 °FScattered clouds.6 mph69%29.80 "HgN/A
1:30 PM75 °FScattered clouds.3 mph74%29.80 "HgN/A
1:00 PM73 °FScattered clouds.6 mph74%29.83 "HgN/A
12:30 PM73 °FScattered clouds.6 mph74%29.83 "HgN/A
12:00 PM73 °FScattered clouds.6 mph74%29.83 "HgN/A
11:30 AM73 °FPartly sunny.6 mph74%29.83 "HgN/A
11:00 AM72 °FPartly sunny.6 mph78%29.83 "HgN/A
10:30 AM70 °FPartly sunny.6 mph83%29.83 "HgN/A
10:00 AM70 °FScattered clouds.6 mph83%29.83 "HgN/A
9:30 AM70 °FScattered clouds.8 mph88%29.83 "HgN/A
9:00 AM70 °FScattered clouds.8 mph83%29.83 "HgN/A
8:30 AM68 °FScattered clouds.8 mph88%29.83 "HgN/A
8:00 AM66 °FPartly sunny.6 mph94%29.83 "HgN/A
7:30 AM66 °FPartly sunny.6 mph94%29.83 "HgN/A
7:00 AM66 °FPartly sunny.6 mph94%29.83 "HgN/A
6:30 AM66 °FScattered clouds.6 mph94%29.83 "HgN/A
6:00 AM66 °FSprinkles. Scattered clouds.6 mph94%29.83 "HgN/A
5:30 AM66 °FSprinkles. Scattered clouds.3 mph94%29.83 "HgN/A
5:00 AM66 °FSprinkles. Passing clouds.3 mph94%29.83 "HgN/A
4:30 AM66 °FSprinkles. Passing clouds.3 mph94%29.83 "HgN/A
4:00 AM66 °FSprinkles. Passing clouds.6 mph88%29.83 "HgN/A
3:30 AM68 °FSprinkles. Passing clouds.3 mph88%29.83 "HgN/A
3:00 AM66 °FSprinkles. Passing clouds.3 mph94%29.80 "HgN/A
2:30 AM68 °FPassing clouds.3 mph88%29.80 "HgN/A
2:00 AM68 °FPassing clouds.3 mph88%29.80 "HgN/A
1:30 AM68 °FPassing clouds.3 mph88%29.83 "HgN/A
1:00 AM68 °FPassing clouds.3 mph88%29.83 "HgN/A
12:30 AM68 °FPassing clouds.3 mph88%29.83 "HgN/A
12:00 AM68 °FPassing clouds.3 mph88%29.83 "HgN/A
11:30 PM
Sun, Jul 24
68 °FPassing clouds.1 mph88%29.83 "HgN/A
11:00 PM68 °FPassing clouds.1 mph88%29.83 "HgN/A
10:30 PM66 °FPassing clouds.1 mph94%29.83 "HgN/A
10:00 PM68 °FPassing clouds.1 mph88%29.83 "HgN/A
9:30 PM66 °FPassing clouds.1 mph94%29.83 "HgN/A
9:00 PM68 °FPassing clouds.1 mph88%29.80 "HgN/A
8:30 PM70 °FScattered clouds.No wind83%29.80 "HgN/A
8:00 PM72 °FScattered clouds.1 mph78%29.80 "HgN/A
7:30 PM72 °FScattered clouds.3 mph78%29.80 "HgN/A
7:00 PM72 °FPartly sunny.3 mph78%29.77 "HgN/A
6:30 PM70 °FPartly sunny.1 mph83%29.80 "HgN/A
6:00 PM70 °FPartly sunny.3 mph83%29.80 "HgN/A
Weather by CustomWeather, © 2016

See weather overviewHow to use our weather pages